Status Flugplatz

Der Flugplatz ist offen
PPR Regelung ! PJE !!!

123.15 MHz
RWY 05/23

flüger beizli - Öffnungszeiten
Freitag ab 16:00
Samstag +Sonntag ab 11:00
Bei schönem Wetter öffnen wir früher! Tel.: 079 234 07 74

Herzlich willkommen auf der Homepage des Flugplatz Biel-Kappelen

Wir freuen uns über Ihren Besuch auf unserem schönen Flugplatz im Berner Seeland. Ob zu Fuss, per Velo, Motorrad, Auto oder Flugzeug Sie sind uns jederzeit herzlich willkommen. 


 

Wetter Kappelen

 


 

[source: ADDS]
METAR
LSZG 250820Z 23008KT 9999 SCT060 BKN075 14/08 Q1008 NOSIG =
TAF
TAF LSZG 250525Z 2506/2515 24005KT 4500 MIFG OVC050 BECMG 2506/2508 9999 BECMG 2509/2512 24015G25KT TEMPO 2513/2515 4500 RA PROB40 TEMPO 2513/2515 2500 +RA BKN010 =
SR / SS: 04:24 / 18:35 UTC ( 2017-04-25)

 


 

Besucherzähler

HeuteHeute25
Seit BeginnSeit Beginn86451
Guests 1

Flugplatz Biel-Kappelen LSZP - 123.15MHz - 032 384 46 84

Email: Diese E-Mail-Adresse ist vor Spambots geschützt! Zur Anzeige muss JavaScript eingeschaltet sein!
www.lszp.ch
2017 © by mb

Zum Anfang